When you browse on this site, cookies collect data to enhance your experience and personalize the content and advertising you see.
Visit our Privacy Policy to learn more. By continuing to use the site, you agree to this use of cookies and data.
  • In Lithuania
  • List of Countries
  • For 7 days
  • Water Temperature
  • Weather Map
  • Weather Widgets
  • user-avatar
    Login

    Hourly Weather Winchester

    Today, 28 February, Friday

    Time Temperature Precipitation Wind Pressure Humidity
    00:00 +2°C° 0 mm 2 mps 756 mmHg 83%
    01:00 +2°C° 0 mm 2 mps 755 mmHg 83%
    02:00 +2°C° 0 mm 2 mps 755 mmHg 83%
    03:00 +2°C° 0 mm 2 mps 755 mmHg 84%
    04:00 +2°C° 0 mm 3 mps 754 mmHg 84%
    05:00 +3°C° 0 mm 4 mps 754 mmHg 85%
    06:00 +2°C° 0 mm 5 mps 753 mmHg 85%
    07:00 +3°C° 0.4 mm 6 mps 752 mmHg 88%
    08:00 +2°C° 0.4 mm 8 mps 751 mmHg 91%
    09:00 +2°C° 0.4 mm 9 mps 750 mmHg 94%
    10:00 +3°C° 1.6 mm 9 mps 749 mmHg 95%
    11:00 +5°C° 1.6 mm 9 mps 748 mmHg 95%
    12:00 +5°C° 1.6 mm 8 mps 747 mmHg 96%
    13:00 +7°C° 1.1 mm 9 mps 746 mmHg 95%
    14:00 +8°C° 1.1 mm 9 mps 745 mmHg 93%
    15:00 +10°C° 1.1 mm 9 mps 744 mmHg 91%
    16:00 +10°C° 0 mm 9 mps 744 mmHg 91%
    17:00 +8°C° 0 mm 9 mps 743 mmHg 91%
    18:00 +8°C° 0 mm 9 mps 743 mmHg 91%
    19:00 +8°C° 0 mm 10 mps 742 mmHg 91%
    20:00 +8°C° 0 mm 10 mps 742 mmHg 90%
    21:00 +8°C° 0 mm 11 mps 741 mmHg 89%
    22:00 +8°C° 0 mm 11 mps 740 mmHg 89%
    23:00 +8°C° 0 mm 11 mps 739 mmHg 88%

    Tomorrow, 29 February, Saturday

    Time Temperature Precipitation Wind Pressure Humidity
    00:00 +8°C° 0 mm 11 mps 739 mmHg 87%
    01:00 +8°C° 0.3 mm 11 mps 737 mmHg 87%
    02:00 +8°C° 0.3 mm 12 mps 735 mmHg 87%
    03:00 +7°C° 0.3 mm 13 mps 734 mmHg 87%
    04:00 +7°C° 1.1 mm 12 mps 733 mmHg 88%
    05:00 +7°C° 1.1 mm 12 mps 732 mmHg 89%
    06:00 +5°C° 1.1 mm 12 mps 731 mmHg 90%
    07:00 +4°C° 1.4 mm 11 mps 731 mmHg 87%
    08:00 +3°C° 1.4 mm 10 mps 732 mmHg 85%
    09:00 +2°C° 1.4 mm 10 mps 732 mmHg 83%
    10:00 +2°C° 0.2 mm 10 mps 733 mmHg 76%
    11:00 +2°C° 0.2 mm 11 mps 734 mmHg 70%
    12:00 +3°C° 0.2 mm 11 mps 735 mmHg 64%
    13:00 +3°C° 0.2 mm 11 mps 735 mmHg 64%
    14:00 +3°C° 0.2 mm 11 mps 735 mmHg 64%
    15:00 +3°C° 0.2 mm 11 mps 735 mmHg 63%
    16:00 +2°C° 0 mm 10 mps 735 mmHg 65%
    17:00 +1°C° 0 mm 9 mps 735 mmHg 67%
    18:00 +2°C° 0 mm 7 mps 736 mmHg 69%
    19:00 0°C° 0 mm 8 mps 736 mmHg 70%
    20:00 0°C° 0 mm 8 mps 736 mmHg 71%
    21:00 0°C° 0 mm 8 mps 736 mmHg 72%
    22:00 0°C° 0 mm 8 mps 736 mmHg 72%
    23:00 0°C° 0 mm 8 mps 736 mmHg 72%

    Day after tomorrow, 1 March, Sunday

    Time Temperature Precipitation Wind Pressure Humidity
    00:00 0°C° 0 mm 8 mps 736 mmHg 72%
    01:00 0°C° 0 mm 8 mps 737 mmHg 71%
    02:00 0°C° 0 mm 8 mps 737 mmHg 70%
    03:00 0°C° 0 mm 7 mps 737 mmHg 70%
    04:00 0°C° 0 mm 7 mps 737 mmHg 71%
    05:00 0°C° 0 mm 7 mps 737 mmHg 71%
    06:00 0°C° 0 mm 7 mps 737 mmHg 72%
    07:00 +2°C° 0 mm 7 mps 737 mmHg 73%
    08:00 +2°C° 0 mm 8 mps 737 mmHg 73%
    09:00 +2°C° 0 mm 8 mps 737 mmHg 73%
    10:00 +4°C° 0.1 mm 8 mps 737 mmHg 70%
    11:00 +5°C° 0.1 mm 8 mps 737 mmHg 67%
    12:00 +6°C° 0.1 mm 8 mps 737 mmHg 64%
    13:00 +6°C° 0.1 mm 8 mps 737 mmHg 63%
    14:00 +6°C° 0.1 mm 8 mps 737 mmHg 63%
    15:00 +6°C° 0.1 mm 8 mps 736 mmHg 63%
    16:00 +4°C° 0 mm 7 mps 736 mmHg 68%
    17:00 +3°C° 0 mm 5 mps 736 mmHg 73%
    18:00 +3°C° 0 mm 4 mps 736 mmHg 78%
    19:00 +3°C° 0 mm 4 mps 736 mmHg 80%
    20:00 +2°C° 0 mm 3 mps 736 mmHg 82%
    21:00 +2°C° 0 mm 3 mps 736 mmHg 84%
    22:00 +2°C° 0.7 mm 3 mps 735 mmHg 87%
    23:00 +3°C° 0.7 mm 2 mps 735 mmHg 90%

    2 March, Monday

    Time Temperature Precipitation Wind Pressure Humidity
    00:00 +4°C° 0.7 mm 1 mps 734 mmHg 92%
    01:00 +3°C° 2.4 mm 2 mps 734 mmHg 93%
    02:00 +3°C° 2.4 mm 2 mps 734 mmHg 94%
    03:00 +1°C° 2.4 mm 3 mps 734 mmHg 95%
    04:00 +1°C° 0.1 mm 3 mps 734 mmHg 93%
    05:00 0°C° 0.1 mm 3 mps 735 mmHg 91%
    06:00 -1°C° 0.1 mm 4 mps 735 mmHg 88%
    07:00 0°C° 0 mm 4 mps 736 mmHg 86%
    08:00 +1°C° 0 mm 4 mps 737 mmHg 83%
    09:00 +1°C° 0 mm 5 mps 738 mmHg 80%
    10:00 +2°C° 0.1 mm 6 mps 738 mmHg 76%
    11:00 +3°C° 0.1 mm 6 mps 739 mmHg 73%
    12:00 +4°C° 0.1 mm 7 mps 739 mmHg 69%
    13:00 +4°C° 0.1 mm 7 mps 739 mmHg 68%
    14:00 +4°C° 0.1 mm 7 mps 740 mmHg 67%
    15:00 +4°C° 0.1 mm 7 mps 740 mmHg 65%
    16:00 +3°C° 0 mm 6 mps 740 mmHg 69%
    17:00 +2°C° 0 mm 5 mps 741 mmHg 73%
    18:00 +1°C° 0 mm 5 mps 742 mmHg 77%
    19:00 0°C° 0 mm 5 mps 742 mmHg 78%
    20:00 0°C° 0 mm 5 mps 743 mmHg 79%
    21:00 0°C° 0 mm 5 mps 744 mmHg 81%
    22:00 0°C° 0 mm 5 mps 744 mmHg 82%
    23:00 -1°C° 0 mm 5 mps 744 mmHg 83%

    3 March, Tuesday

    Time Temperature Precipitation Wind Pressure Humidity
    00:00 -1°C° 0 mm 5 mps 745 mmHg 84%
    01:00 -1°C° 0 mm 4 mps 745 mmHg 84%
    02:00 -1°C° 0 mm 4 mps 745 mmHg 85%
    03:00 -1°C° 0 mm 4 mps 746 mmHg 85%
    04:00 -2°C° 0 mm 4 mps 746 mmHg 85%
    05:00 -2°C° 0 mm 4 mps 747 mmHg 84%
    06:00 -2°C° 0 mm 5 mps 747 mmHg 83%
    07:00 0°C° 0 mm 5 mps 747 mmHg 79%
    08:00 +1°C° 0 mm 5 mps 748 mmHg 75%
    09:00 +2°C° 0 mm 6 mps 748 mmHg 71%
    10:00 +3°C° 0.1 mm 6 mps 748 mmHg 68%
    11:00 +4°C° 0.1 mm 6 mps 748 mmHg 66%
    12:00 +5°C° 0.1 mm 6 mps 748 mmHg 63%
    13:00 +6°C° 0.1 mm 5 mps 748 mmHg 63%
    14:00 +6°C° 0.1 mm 5 mps 748 mmHg 64%
    15:00 +6°C° 0.1 mm 5 mps 747 mmHg 65%
    16:00 +5°C° 0.1 mm 4 mps 747 mmHg 72%
    17:00 +4°C° 0.1 mm 4 mps 747 mmHg 79%
    18:00 +3°C° 0.1 mm 3 mps 747 mmHg 85%
    19:00 +4°C° 0 mm 2 mps 747 mmHg 87%
    20:00 +3°C° 0 mm 2 mps 747 mmHg 88%
    21:00 +4°C° 0 mm 1 mps 747 mmHg 90%
    22:00 +4°C° 0 mm 1 mps 747 mmHg 90%
    23:00 +4°C° 0 mm 1 mps 747 mmHg 91%

    4 March, Wednesday

    Time Temperature Precipitation Wind Pressure Humidity
    00:00 +4°C° 0 mm 1 mps 746 mmHg 91%
    01:00 +4°C° 0.1 mm 1 mps 746 mmHg 92%
    02:00 +4°C° 0.1 mm 1 mps 746 mmHg 93%
    03:00 +4°C° 0.1 mm 1 mps 745 mmHg 94%
    04:00 +3°C° 0 mm 2 mps 745 mmHg 94%
    05:00 +3°C° 0 mm 2 mps 746 mmHg 94%
    06:00 +3°C° 0 mm 2 mps 746 mmHg 93%
    07:00 +3°C° 0 mm 2 mps 746 mmHg 92%
    08:00 +4°C° 0 mm 2 mps 746 mmHg 91%
    09:00 +4°C° 0 mm 2 mps 746 mmHg 90%
    10:00 +5°C° 0 mm 2 mps 746 mmHg 85%
    11:00 +5°C° 0 mm 3 mps 746 mmHg 80%
    12:00 +7°C° 0 mm 3 mps 746 mmHg 75%
    13:00 +7°C° 0 mm 3 mps 745 mmHg 75%
    14:00 +6°C° 0 mm 4 mps 745 mmHg 75%
    15:00 +6°C° 0 mm 4 mps 744 mmHg 75%
    16:00 +5°C° 0.1 mm 5 mps 744 mmHg 79%
    17:00 +5°C° 0.1 mm 5 mps 743 mmHg 82%
    18:00 +3°C° 0.1 mm 5 mps 742 mmHg 85%
    19:00 +3°C° 0.1 mm 6 mps 742 mmHg 86%
    20:00 +2°C° 0.1 mm 6 mps 742 mmHg 87%
    21:00 +2°C° 0.1 mm 6 mps 742 mmHg 87%
    22:00 +2°C° 0.1 mm 7 mps 742 mmHg 87%
    23:00 +2°C° 0.1 mm 7 mps 742 mmHg 87%
    Show more